427  
NZUS59 KLOT 200708  
HRRLOT  
 
CHICAGO AREA WEATHER ROUNDUP  
NATIONAL WEATHER SERVICE CHICAGO/ROMEOVILLE IL  
200 AM CDT WED MAR 20 2019  
 
NOTE: "FAIR" INDICATES FEW OR NO CLOUDS BELOW 12,000 FEET WITH NO  
SIGNIFICANT WEATHER AND/OR OBSTRUCTIONS TO VISIBILITY.  
 
* THESE STATIONS ARE NOT UNDER NWS QUALITY CONTROL. THEY ALSO MAY NOT  
REPORT WEATHER SUCH AS PRECIPITATION OR FOG.  
 
ILZ005-006-012>014-019>023-200800-  
NORTHEAST ILLINOIS  
 
CITY SKY/WX TMP DP RH WIND PRES REMARKS  
OHARE MOCLDY 41 28 60 S7 30.18F  
MIDWAY CLOUDY 42 28 57 SW6 30.20F  
AURORA CLOUDY 36 31 82 CALM 30.18F  
LANSING* CLOUDY 39 30 69 CALM 30.22F  
JOLIET* CLOUDY 43 33 65 S3 30.20F  
WAUKEGAN N/A 32 25 75 S6 30.17F WCI 26  
DUPAGE AIRPORT MOCLDY 39 30 70 S6 30.18F  
WHEELING CLOUDY 41 28 60 S6 30.20F  
KANKAKEE* CLOUDY 40 31 69 S8 30.22F  
MORRIS* CLOUDY 40 33 74 S7 30.20S  
LEWIS AIRPORT* CLOUDY 38 32 81 S6 30.20F  
NORTHERLY IS NOT AVBL  
NORTHERLY ISL NOT AVBL  

 
 
WIZ051-052-058>065-066-070>072-200800-  
SOUTHEAST WISCONSIN  
 
CITY SKY/WX TMP DP RH WIND PRES REMARKS  
MILWAUKEE N/A 38 26 62 SW5 30.16F  
KENOSHA* N/A 36 27 69 S6 30.16F  
RACINE* N/A 37 26 64 SW8 30.17F  
BURLINGTON N/A 28 26 90 S5 30.16F WCI 23  
WAUKESHA N/A 32 25 74 S5 30.16F WCI 27  
WEST BEND N/A 34 27 75 SW8 30.13F WCI 27  

 
 
INZ001>003-010>013-019-020-200800-  
NORTHWEST INDIANA  
 
CITY SKY/WX TMP DP RH WIND PRES REMARKS  
GARY* MOCLDY 43 27 53 S7 30.21F  
MICHIGAN CITY* NOT AVBL  
RENSSELAER* NOT AVBL  
VALPARAISO CLOUDY 39 27 62 S6 30.22F  

 
 
LMZ740>746-200800-  
SOUTHERN LAKE MICHIGAN  
 
STATION/POSITION TIME SKY/WX TEMP WIND PRES VSBY  
AIR DIR/SP/G  
(UTC) (F) (DEG/KT/KT) (MB) (MI)  
HARRISON CRIB 0640 44 190/ 12/ 13 N/A  
NORTHERLY ISL NOT AVBL  
CALUMET HARBOR 0648 42 180/ 7/ 10 1022.2F  
BURNS HARBOR 0640 41 190/ 7/ 9 1023.7F  
MICHIGAN CITY 0640 42 160/ 15/ 18 N/A  

 
 
ABBREVIATIONS USED IN REMARKS  
TC - TEMPERATURE IN CELSIUS  
WCI - WIND CHILL INDEX  
HX - HEAT INDEX  
VSB - VISIBILITY  

 
 
 
CLICK HERE TO GO TO PREVIOUS BULLETINS.

The Nexlab IL Page
The Nexlab IN Page Main Text Page